Detroit Lakes, MN

7:28 PM CST on December 05, 2016 (GMT -0600)
Detroit Lakes

Weather History for KDTL - October, 2011

Change the Weather History Date:

Thursday, October 6, 2011

  Actual Average Record
Temperature  
Mean Temperature 68 °F -  
Max Temperature 78 °F 58 °F 83 °F (1947)
Min Temperature 57 °F 35 °F 11 °F (1976)
Cooling Degree Days 2    
Growing Degree Days 18 (Base 50)    
Moisture  
Dew Point 43 °F    
Average Humidity 42    
Maximum Humidity 63    
Minimum Humidity 26    
Precipitation  
Precipitation 0.00 in - - ()
Sea Level Pressure  
Sea Level Pressure 29.92 in    
Wind  
Wind Speed 13 mph (SSE)    
Max Wind Speed 31 mph    
Max Gust Speed 41 mph    
Visibility 10 miles    
Events      
Averages and records for this station are not official NWS values.
T = Trace of Precipitation, MM = Missing Value Source: NWS Daily Summary

Daily Weather History Graph

Daily Weather History Graph

Search for Another Location

Airport or City:

Trip Planner

Search our weather history database for the weather conditions in past years. The results will help you decide how hot, cold, wet, or windy it might be!

Date:

Astronomy

Oct. 06, 2011 Rise Set
Actual Time 7:28 AM CDT 6:53 PM CDT
Civil Twilight 6:58 AM CDT 7:24 PM CDT
Nautical Twilight 6:23 AM CDT 7:59 PM CDT
Astronomical Twilight 5:47 AM CDT 8:34 PM CDT
Moon 4:23 PM CDT 1:59 AM CDT
Length of Visible Light 12h 25m
Length of Day
11h 25m
Waxing Gibbous, 75% of the Moon is Illuminated
Oct 6
Waxing Gibbous
Oct 11
Full
Oct 19
Last Quarter
Oct 26
New
Nov 2
First Quarter

Hourly Weather History & Observations

Time (CDT) Temp. Dew Point Humidity Pressure Visibility Wind Dir Wind Speed Gust Speed Precip Events Conditions
12:13 AM 66.2 °F 42.8 °F 43% 29.96 in 10.0 mi SSE 10.4 mph - N/A   Clear
12:34 AM 64.4 °F 42.8 °F 45% 29.96 in 10.0 mi SSE 9.2 mph - N/A   Clear
12:53 AM 64.4 °F 42.8 °F 45% 29.96 in 10.0 mi SSE 10.4 mph - N/A   Clear
1:13 AM 64.4 °F 42.8 °F 45% 29.96 in 10.0 mi SSE 8.1 mph - N/A   Clear
1:34 AM 64.4 °F 42.8 °F 45% 29.96 in 10.0 mi SSE 9.2 mph - N/A   Clear
1:54 AM 62.6 °F 42.8 °F 48% 29.97 in 10.0 mi SSE 8.1 mph - N/A   Clear
2:13 AM 62.6 °F 42.8 °F 48% 29.96 in 10.0 mi SSE 8.1 mph - N/A   Clear
2:34 AM 62.6 °F 44.6 °F 52% 29.97 in 10.0 mi SE 8.1 mph - N/A   Clear
2:53 AM 62.6 °F 44.6 °F 52% 29.96 in 10.0 mi SSE 8.1 mph - N/A   Clear
3:13 AM 62.6 °F 44.6 °F 52% 29.96 in 10.0 mi SE 6.9 mph - N/A   Clear
3:34 AM 60.8 °F 44.6 °F 55% 29.96 in 10.0 mi SE 8.1 mph - N/A   Clear
3:53 AM 60.8 °F 44.6 °F 55% 29.96 in 10.0 mi SE 8.1 mph - N/A   Clear
4:33 AM 60.8 °F 44.6 °F 55% 29.96 in 10.0 mi SE 9.2 mph - N/A   Clear
4:53 AM 59.0 °F 44.6 °F 59% 29.96 in 10.0 mi SE 8.1 mph - N/A   Clear
5:14 AM 59.0 °F 44.6 °F 59% 29.96 in 10.0 mi SSE 9.2 mph - N/A   Clear
5:34 AM 59.0 °F 44.6 °F 59% 29.96 in 10.0 mi SE 9.2 mph - N/A   Clear
5:53 AM 59.0 °F 44.6 °F 59% 29.96 in 10.0 mi SE 10.4 mph - N/A   Clear
6:14 AM 59.0 °F 44.6 °F 59% 29.96 in 10.0 mi SE 10.4 mph - N/A   Clear
6:33 AM 59.0 °F 44.6 °F 59% 29.96 in 10.0 mi SE 9.2 mph - N/A   Clear
6:53 AM 57.2 °F 44.6 °F 63% 29.96 in 10.0 mi SE 10.4 mph - N/A   Clear
7:14 AM 57.2 °F 44.6 °F 63% 29.96 in 10.0 mi SSE 10.4 mph - N/A   Clear
7:33 AM 57.2 °F 44.6 °F 63% 29.96 in 10.0 mi SE 10.4 mph - N/A   Clear
7:53 AM 57.2 °F 44.6 °F 63% 29.97 in 10.0 mi SE 10.4 mph - N/A   Clear
8:14 AM 57.2 °F 44.6 °F 63% 29.97 in 10.0 mi SE 10.4 mph - N/A   Clear
8:53 AM 59.0 °F 44.6 °F 59% 29.97 in 10.0 mi SSE 10.4 mph - N/A   Clear
9:13 AM 60.8 °F 44.6 °F 55% 29.97 in 10.0 mi SSE 9.2 mph - N/A   Clear
9:33 AM 62.6 °F 44.6 °F 52% 29.96 in 10.0 mi SSE 13.8 mph 18.4 mph N/A   Clear
9:54 AM 64.4 °F 44.6 °F 49% 29.96 in 10.0 mi SSE 11.5 mph - N/A   Clear
10:33 AM 68.0 °F 44.6 °F 43% 29.96 in 10.0 mi SSE 15.0 mph 18.4 mph N/A   Clear
10:54 AM 69.8 °F 44.6 °F 40% 29.95 in 10.0 mi SSE 15.0 mph 18.4 mph N/A   Clear
11:13 AM 71.6 °F 44.6 °F 38% 29.94 in 10.0 mi SSE 15.0 mph 23.0 mph N/A   Clear
11:33 AM 71.6 °F 44.6 °F 38% 29.94 in 10.0 mi SSE 20.7 mph - N/A   Clear
11:54 AM 73.4 °F 44.6 °F 36% 29.94 in 10.0 mi SSE 21.9 mph 26.5 mph N/A   Clear
12:13 PM 73.4 °F 44.6 °F 36% 29.93 in 10.0 mi South 24.2 mph 29.9 mph N/A   Clear
12:34 PM 77.0 °F 44.6 °F 32% 29.93 in 10.0 mi SSE 25.3 mph 33.4 mph N/A   Clear
12:53 PM 77.0 °F 42.8 °F 29% 29.93 in 10.0 mi South 27.6 mph 33.4 mph N/A   Clear
1:13 PM 77.0 °F 42.8 °F 29% 29.92 in 10.0 mi SSE 27.6 mph 34.5 mph N/A   Clear
1:34 PM 77.0 °F 42.8 °F 29% 29.92 in 10.0 mi SSE 27.6 mph 34.5 mph N/A   Clear
1:54 PM 77.0 °F 42.8 °F 29% 29.91 in 10.0 mi SSE 20.7 mph 34.5 mph N/A   Clear
2:13 PM 77.0 °F 42.8 °F 29% 29.90 in 10.0 mi South 26.5 mph 33.4 mph N/A   Clear
2:34 PM 77.0 °F 42.8 °F 29% 29.90 in 10.0 mi SSE 18.4 mph 32.2 mph N/A   Clear
2:53 PM 78.8 °F 42.8 °F 28% 29.90 in 10.0 mi SSE 21.9 mph 41.4 mph N/A   Clear
3:34 PM 78.8 °F 42.8 °F 28% 29.88 in 10.0 mi SSE 25.3 mph 34.5 mph N/A   Clear
3:53 PM 77.0 °F 42.8 °F 29% 29.88 in 10.0 mi SE 24.2 mph 31.1 mph N/A   Clear
4:13 PM 77.0 °F 42.8 °F 29% 29.88 in 10.0 mi SSE 21.9 mph 26.5 mph N/A   Clear
4:33 PM 78.8 °F 41.0 °F 26% 29.87 in 10.0 mi SSE 31.1 mph 38.0 mph N/A   Clear
5:14 PM 77.0 °F 41.0 °F 28% 29.87 in 10.0 mi SSE 26.5 mph 38.0 mph N/A   Clear
5:33 PM 75.2 °F 41.0 °F 29% 29.86 in 10.0 mi SSE 21.9 mph 31.1 mph N/A   Clear
5:53 PM 75.2 °F 41.0 °F 29% 29.86 in 10.0 mi SSE 20.7 mph 27.6 mph N/A   Clear
6:14 PM 73.4 °F 41.0 °F 31% 29.87 in 10.0 mi SSE 18.4 mph 26.5 mph N/A   Clear
6:33 PM 73.4 °F 41.0 °F 31% 29.85 in 10.0 mi SE 18.4 mph 25.3 mph N/A   Clear
6:53 PM 73.4 °F 41.0 °F 31% 29.85 in 10.0 mi SE 16.1 mph 25.3 mph N/A   Clear
7:13 PM 71.6 °F 41.0 °F 33% 29.85 in 10.0 mi SE 18.4 mph 24.2 mph N/A   Clear
7:33 PM 71.6 °F 41.0 °F 33% 29.85 in 10.0 mi SE 16.1 mph 23.0 mph N/A   Clear
7:54 PM 71.6 °F 41.0 °F 33% 29.85 in 10.0 mi SE 17.3 mph 23.0 mph N/A   Clear
8:13 PM 71.6 °F 41.0 °F 33% 29.85 in 10.0 mi SE 17.3 mph 23.0 mph N/A   Clear
8:33 PM 71.6 °F 39.2 °F 31% 29.85 in 10.0 mi SE 19.6 mph 31.1 mph N/A   Scattered Clouds
8:54 PM 71.6 °F 39.2 °F 31% 29.85 in 10.0 mi SSE 21.9 mph 27.6 mph N/A   Scattered Clouds
9:13 PM 71.6 °F 39.2 °F 31% 29.85 in 10.0 mi SSE 21.9 mph 29.9 mph N/A   Clear
9:33 PM 71.6 °F 39.2 °F 31% 29.85 in 10.0 mi SSE 25.3 mph - N/A   Clear
9:54 PM 71.6 °F 39.2 °F 31% 29.85 in 10.0 mi SSE 25.3 mph 34.5 mph N/A   Scattered Clouds
10:13 PM 71.6 °F 39.2 °F 31% 29.86 in 10.0 mi SSE 23.0 mph 32.2 mph N/A   Clear
10:33 PM 69.8 °F 39.2 °F 33% 29.86 in 10.0 mi SSE 18.4 mph 31.1 mph N/A   Clear
10:54 PM 69.8 °F 41.0 °F 35% 29.86 in 10.0 mi SSE 21.9 mph 29.9 mph N/A   Clear
11:14 PM 69.8 °F 41.0 °F 35% 29.86 in 10.0 mi SSE 19.6 mph 29.9 mph N/A   Clear
11:33 PM 69.8 °F 41.0 °F 35% 29.85 in 10.0 mi SSE 24.2 mph 29.9 mph N/A   Clear
11:54 PM 69.8 °F 41.0 °F 35% 29.85 in 10.0 mi SSE 19.6 mph 27.6 mph N/A   Clear